User: anonymous   Login
Location: Unspecified
(0.0000°N, 0.0000°E)
Time: 11:23:54
(UTC+00:00)
Language:

Interbol-2 - Orbit

View from above orbital plane
View from above orbital plane
View from above satellite
View from above satellite

Ground track
Ground track

The orbit data is extracted from the following two-line orbital elements,

1 24292U 96050B   17328.50442154 +.00000049 +00000-0 +00000-0 0  9998
2 24292 063.5328 157.7768 5240606 237.1959 068.7336 04.14702846321553
Epoch (UTC): 24 November 2017 12:06:22
Eccentricity: 0.5240606
inclination: 63.5328°
perigee height: 1410 km
apogee height: 18562 km
right ascension of ascending node: 157.7768°
argument of perigee: 237.1959°
revolutions per day: 4.14702846
mean anomaly at epoch: 68.7336°
orbit number at epoch: 32155

The dashed part of the orbit path shows where the satellite is in the earth's shadow,  

DLR